Regional Weather Roundup
Issued by NWS

Home | Current Version | Previous Version | Graphics & Text | Print | Product List | Glossary Off
Versions: 1 2 3 4 5 6 7 8 9 10 11 12 13 14 15 16 17 18 19 20 21 22 23 24 25 26 27 28 29 30 31 32 33 34 35 36 37 38 39 40 41 42 43 44 45 46 47 48 49 50

000
ASUS43 KMKX 252221
RWRWI

WISCONSIN REGIONAL WEATHER ROUNDUP
NATIONAL WEATHER SERVICE MILWAUKEE/SULLIVAN WI
500 PM CDT TUE APR 25 2017

NOTE: "FAIR" INDICATES FEW OR NO CLOUDS BELOW 12,000 FEET WITH NO
SIGNIFICANT WEATHER AND/OR OBSTRUCTIONS TO VISIBILITY.

WIZ001-002-006>008-014>016-023>028-252300-
NORTHWEST WISCONSIN

CITY           SKY/WX    TMP DP  RH WIND       PRES   REMARKS
SUPERIOR ARPT  CLOUDY    41  40  95 NE13G18   29.64S
ASHLAND        CLOUDY    42  37  82 NE17G24   29.66R
HAYWARD        CLOUDY    59  38  45 N7        29.58R
SIREN          CLOUDY    61  44  54 CALM      29.58R
CUMBERLAND     LGT RAIN  55  50  82 W8        29.57S
RICE LAKE      RAIN      60  51  73 SW6       29.59R
CHETEK         RAIN      61  51  70 SW8       29.57R
LADYSMITH      LGT RAIN  63  51  65 W10G16    29.58R
EAU CLAIRE     RAIN      57  55  93 SW6       29.57R FOG
MENOMONIE      RAIN      55  54  95 W3        29.58S
NEW RICHMOND   RAIN      55  52  89 CALM      29.57F
OSCEOLA        RAIN      58  50  75 SE5       29.59S
$$

WIZ003>005-009-010-017-018-252300-
NORTH CENTRAL WISCONSIN

CITY           SKY/WX    TMP DP  RH WIND       PRES   REMARKS
MANITOWISH WTR CLOUDY    69  40  35 SE6       29.55S
ARBOR VITAE    CLOUDY    72  39  30 S9        29.55S
WOODRUFF       CLOUDY    72  39  30 S9        29.55S
RHINELANDER    CLOUDY    72  44  36 SE8       29.57S
EAGLE RIVER    CLOUDY    71  35  26 S7        29.56F
LAND O LAKES   CLOUDY    72  35  25 S8        29.58F
PHILLIPS       CLOUDY    68  43  39 S10       29.54S
TOMAHAWK       CLOUDY    68  38  33 S3        29.56R
MEDFORD        DRIZZLE   66  45  46 SW10      29.56R
MERRILL        CLOUDY    72  39  30 S8        29.56S
$$

WIZ029-030-035-036-043>047-252300-
CENTRAL WISCONSIN

CITY           SKY/WX    TMP DP  RH WIND       PRES   REMARKS
WAUSAU         CLOUDY    71  41  33 S7        29.54S
MOSINEE        PTSUNNY   70  39  32 S10       29.57R
MARSHFIELD     LGT RAIN  67  41  38 S13G28    29.56R
STEVENS POINT  CLOUDY    69  40  34 S8        29.57R
WAUPACA        CLOUDY    73  39  29 S9        29.57R
WAUTOMA        CLOUDY    71  44  37 S14G21    29.57R
WISC RAPIDS    LGT RAIN  66  47  50 S6        29.57R
CAMP DOUGLAS   CLOUDY    64  54  68 S3        29.55S
$$

WIZ011>013-019>022-031-037>040-048>050-252300-
NORTHEAST WISCONSIN

CITY           SKY/WX    TMP DP  RH WIND       PRES   REMARKS
ANTIGO         CLOUDY    67  46  46 SE10      29.59S
SHAWANO        CLOUDY    73  51  45 SE14G21   29.57S
OCONTO         PTSUNNY   64  48  56 SE10      29.60F
STURGEON BAY   MOSUNNY   61  52  72 S17G23    29.63S
GREEN BAY      CLOUDY    69  51  52 SE15      29.59F
MANITOWOC      CLOUDY    57  49  74 S12       29.62F
APPLETON       PTSUNNY   68  46  45 SE10      29.57F
CLINTONVILLE   CLOUDY    72  43  35 SE13G20   29.57R
OSHKOSH        CLOUDY    68  51  54 SE12      29.57S
$$

WIZ032>034-041-042-053>061-252300-
SOUTHWEST WISCONSIN

CITY           SKY/WX    TMP DP  RH WIND       PRES   REMARKS
LA CROSSE      CLOUDY    62  55  77 N7        29.53F
SPARTA         CLOUDY    58  56  91 CALM      29.57R
VIROQUA        CLOUDY    69  46  43 E9        29.54F
BOSCOBEL       CLOUDY    75  43  31 CALM      29.50F
PRAIRIE DU CHI CLOUDY    72  43  35 E7        29.48F
PLATTEVILLE    PTSUNNY   73  43  34 SE13      29.51F
$$

WIZ056-057-062-063-064-067-068-252300-
SOUTH CENTRAL WISCONSIN

CITY           SKY/WX    TMP DP  RH WIND       PRES   REMARKS
REEDSBURG      CLOUDY    70  44  39 CALM      29.54S
BARABOO/DELLS  CLOUDY    69  41  36 SE9       29.55S
LONE ROCK      CLOUDY    72  43  35 SE12      29.52F
MINERAL POINT  CLOUDY    72  43  35 SE14      29.52F
MADISON        CLOUDY    73  47  39 S15       29.53F
MIDDLETON      MOSUNNY   74  46  36 S9G17     29.54F
WATERTOWN      MOSUNNY   73  51  45 SE10G16   29.55S
MONROE         CLOUDY    73  46  38 S16G22    29.52F
JANESVILLE     PTSUNNY   77  45  31 SE17G23   29.52F
$$

WIZ051-052-058>065-066-070>072-252300-
SOUTHEAST WISCONSIN

CITY           SKY/WX    TMP DP  RH WIND       PRES   REMARKS
MILWAUKEE      PTSUNNY   65  52  62 SE16      29.59F
WAUKESHA       MOSUNNY   70  48  46 SE16      29.59S
MILWAUKEE/TIMM SUNNY     72  45  37 SE12G18   29.58F
RACINE         MOSUNNY   65  50  58 SE16      29.60F
KENOSHA        SUNNY     69  51  52 SE15      29.58S
FOND DU LAC    CLOUDY    69  48  47 SE13      29.57S
SHEBOYGAN      CLOUDY    61  52  72 SE6       29.60F
WEST BEND      MOSUNNY   66  46  48 SE13      29.59R
JUNEAU         CLOUDY    72  48  43 SE13      29.58R
$$

LSZ147-162-252300-
LAKE SUPERIOR

STATION/POSITION TIME  TEMP    WIND        PRES    WAVE
                       AIR SEA DIR/SP/G            HT/PER
                 (UTC) (F)     (DEG/KT/KT) (MB)    (FT/S)
DEVILS ISLAND    2200   40      50/ 17/ 19 1004.7R
SAXON HARBOR     2130   40     350/  7/  8 1003.7S
$$

LMZ867-665-643>646-252300-
LAKE MICHIGAN

STATION/POSITION TIME  TEMP    WIND        PRES    WAVE
                       AIR SEA DIR/SP/G            HT/PER
                 (UTC) (F)     (DEG/KT/KT) (MB)    (FT/S)
CHAMBERS ISLAND  2140   62     150/  5/ 14 1003.4F
N MID LAKE BUOY  2150   41 37   80/  6/  8 1006.2F   1/ 3
NORTHPORT PIER   2140   49     120/  9/ 14 1004.4S
SISTER BAY       2021   65     180/ 22/ 28   N/A
KEWAUNEE LAKESHO 2154   49     170/  6/  8 1003.2F
SHEBOYGAN LAKESH 2200   48      CALM  /  1 1002.7F
PORT WASHINGTON  2140   51     170/  1/  4 1003.4F
MILWAUKEE LAKESH 2200   52     250/  2/  3   N/A
S MID LAKE BUOY  2150   49 42   70/ 10/ 12 1002.7F   1
KENOSHA   LAKESH 2200   55     120/ 16/ 18 1001.7
$$

TC  - TEMPERATURE IN CELSIUS
VSB - VISIBILITY IN STATUTE MILES
WCI - WIND CHILL INDEX
HX  - HEAT INDEX





USA.gov is the U.S. government's official web portal to all federal, state and local government web resources and services.